Weather History for Beauvechain, Belgium

Change the Weather History Date:

Sunday, August 18, 2013

  Actual Average Record
Temperature  
Mean Temperature 66 °F -  
Max Temperature 71 °F 65 °F 94 °F (2012)
Min Temperature 62 °F 54 °F 51 °F (2007)
Cooling Degree Days 2    
Growing Degree Days 16 (Base 50)    
Moisture  
Dew Point 62 °F    
Average Humidity 88    
Maximum Humidity 100    
Minimum Humidity 62    
Precipitation  
Precipitation 0.31 in - - ()
Sea Level Pressure  
Sea Level Pressure 29.90 in    
Wind  
Wind Speed 9 mph ()    
Max Wind Speed 17 mph    
Max Gust Speed 30 mph    
Visibility 5.6 miles    
Events Rain    
Averages and records for this station are not official NWS values.
T = Trace of Precipitation, MM = Missing Value Source: Averaged Metar Reports

Daily Weather History Graph

Daily Weather History Graph

Search for Another Location

Airport:

Trip Planner

Search our weather history database for the weather conditions in past years. The results will help you decide how hot, cold, wet, or windy it might be!

Date:

Astronomy

Aug. 18, 2013 Rise Set
Actual Time 6:33 AM CEST 8:55 PM CEST
Civil Twilight 5:56 AM CEST 9:31 PM CEST
Nautical Twilight 5:11 AM CEST 10:16 PM CEST
Astronomical Twilight 4:17 AM CEST 11:09 PM CEST
Moon 6:55 PM CEST (8/18) 3:14 AM CEST (8/18)
Length of Visible Light 15h 34m
Length of Day
14h 22m
Waxing Gibbous, 90% of the Moon is Illuminated
Aug 18
Waxing Gibbous
Aug 21
Full
Aug 28
Last Quarter
Sep 5
New
Sep 12
First Quarter

Hourly Weather History & Observations

Time (CEST) Temp. Dew Point Humidity Pressure Visibility Wind Dir Wind Speed Gust Speed Precip Events Conditions
12:04 AM 68.0 °F 57.2 °F 68% 29.92 in 6.2 mi SW 6.9 mph - N/A   Mostly Cloudy
12:25 AM 68.0 °F 57.2 °F 68% 29.89 in 6.2 mi SSW 4.6 mph - N/A   Mostly Cloudy
1:25 AM 68.0 °F 57.2 °F 68% 29.89 in 6.2 mi WSW 5.8 mph - N/A   Mostly Cloudy
2:00 AM 66 °F 58 °F 68% 29.90 in 31 mi West 4.5 mph - -   Clear
2:24 AM 64.4 °F 59.0 °F 83% 29.89 in 1.5 mi WSW 3.5 mph - N/A   Scattered Clouds
2:25 AM 64.4 °F 59.0 °F 83% 29.89 in 6.2 mi WSW 3.5 mph - N/A   Scattered Clouds
3:25 AM 64.4 °F 59.0 °F 83% 29.89 in 6.2 mi SSW 5.8 mph - N/A   Mostly Cloudy
4:25 AM 66.2 °F 59.0 °F 78% 29.86 in 6.2 mi SSW 11.5 mph - N/A   Overcast
5:00 AM 67 °F 57 °F 62% 29.86 in 31 mi South 11.2 mph - -   Clear
5:25 AM 68.0 °F 57.2 °F 68% 29.86 in 6.2 mi SSW 13.8 mph - N/A   Overcast
6:25 AM 68.0 °F 59.0 °F 73% 29.86 in 6.2 mi SW 12.7 mph - N/A   Mostly Cloudy
7:25 AM 68.0 °F 59.0 °F 73% 29.86 in 6.2 mi SSW 15.0 mph - N/A   Mostly Cloudy
8:00 AM 67 °F 60 °F 73% 29.86 in 31 mi SW 13.4 mph - -   Clear
8:25 AM 66.2 °F 60.8 °F 83% 29.86 in 6.2 mi SW 15.0 mph - N/A   Mostly Cloudy
9:25 AM 64.4 °F 62.6 °F 94% 29.89 in 6.2 mi SW 12.7 mph - N/A   Overcast
10:25 AM 62.6 °F 62.6 °F 100% 29.89 in 3.7 mi SW 12.7 mph - N/A   Mostly Cloudy
10:40 AM 64.4 °F 62.6 °F 94% 29.89 in 6.2 mi SW 11.5 mph - N/A   Mostly Cloudy
11:00 AM 64 °F 63 °F 96% 29.89 in 5 mi SW 11.2 mph - -   Clear
11:09 AM 62.6 °F 62.6 °F 100% 29.89 in - SW 17.3 mph - N/A   Overcast
11:21 AM 62.6 °F 62.6 °F 100% 29.89 in 3.1 mi SW 17.3 mph - N/A   Mostly Cloudy
11:25 AM 62.6 °F 62.6 °F 100% 29.89 in 3.1 mi SW 17.3 mph 29.9 mph N/A   Mostly Cloudy
12:20 PM 64.4 °F 64.4 °F 100% 29.89 in - SW 13.8 mph - N/A   Mostly Cloudy
12:25 PM 64.4 °F 64.4 °F 100% 29.89 in - SW 12.7 mph - N/A   Mostly Cloudy
1:25 PM 64.4 °F 64.4 °F 100% 29.89 in - SW 11.5 mph - N/A   Mostly Cloudy
1:45 PM 64.4 °F 64.4 °F 100% 29.92 in 3.7 mi SW 11.5 mph - N/A   Mostly Cloudy
2:00 PM 64 °F 64 °F 100% 29.91 in 4 mi WSW 11.2 mph - - Rain Drizzle
2:25 PM 66.2 °F 64.4 °F 94% 29.92 in 6.2 mi WSW 12.7 mph - N/A   Mostly Cloudy
2:56 PM 66.2 °F 64.4 °F 94% 29.92 in 6.2 mi SW 13.8 mph - N/A   Mostly Cloudy
3:25 PM 68.0 °F 66.2 °F 94% 29.92 in 6.2 mi SW 13.8 mph - N/A   Mostly Cloudy
3:26 PM 68.0 °F 66.2 °F 94% 29.92 in 6.2 mi SW 13.8 mph - N/A   Mostly Cloudy
3:40 PM 68.0 °F 64.4 °F 88% 29.92 in 6.2 mi SW 13.8 mph - N/A   Mostly Cloudy
4:25 PM 69.8 °F 64.4 °F 83% 29.92 in 6.2 mi SW 13.8 mph - N/A   Mostly Cloudy
4:45 PM 69.8 °F 62.6 °F 78% 29.89 in 6.2 mi SW 13.8 mph - N/A   Partly Cloudy
5:00 PM 71 °F 63 °F 69% 29.89 in 28 mi SW 13.4 mph - -   Clear
5:25 PM 71.6 °F 64.4 °F 78% 29.92 in 6.2 mi WSW 11.5 mph - N/A   Scattered Clouds
6:20 PM 68.0 °F 64.4 °F 88% 29.89 in - SSW 12.7 mph - N/A   Mostly Cloudy
6:25 PM 66.2 °F 64.4 °F 94% 29.92 in 3.7 mi SSW 11.5 mph - N/A   Mostly Cloudy
6:53 PM 62.6 °F 60.8 °F 94% 29.89 in 6.2 mi SSW 13.8 mph - N/A   Mostly Cloudy
6:57 PM 64.4 °F 62.6 °F 94% 29.89 in 4.3 mi SSW 11.5 mph - N/A   Mostly Cloudy
7:15 PM 64.4 °F 64.4 °F 100% 29.89 in 6.2 mi SSW 11.5 mph - N/A   Mostly Cloudy
7:25 PM 64.4 °F 62.6 °F 94% 29.92 in 6.2 mi SSW 10.4 mph - N/A   Mostly Cloudy
8:00 PM 64 °F 63 °F 94% 29.91 in 25 mi SW 8.9 mph - -   Clear
8:25 PM 64.4 °F 64.4 °F 100% 29.92 in 6.2 mi SW 6.9 mph - N/A   Mostly Cloudy
9:25 PM 64.4 °F 62.6 °F 94% 29.92 in 6.2 mi SSW 5.8 mph - N/A   Mostly Cloudy
10:17 PM 62.6 °F 62.6 °F 100% 29.92 in 1.1 mi SW 8.1 mph - N/A   Partly Cloudy
10:25 PM 62.6 °F 62.6 °F 100% 29.92 in 6.2 mi SW 6.9 mph - N/A   Partly Cloudy
11:00 PM 63 °F 62 °F 95% 29.93 in 14 mi SW 6.7 mph - -   Clear
11:25 PM 62.6 °F 60.8 °F 94% 29.95 in 6.2 mi WSW 6.9 mph - N/A   Mostly Cloudy